Overview Statistics Trail Chart Weather Telemetry Raw packets
 

This is the latest recevied weather packets stored in our database for station/object KO4LCK. If no packets are shown the sender has not sent any weather packets the latest 10 day(s).

<< 1 2 3 4 >>
Time Temp. Humidity Pressure Rain* Wind** Luminosity Snow
1788657800 25° C 90% 1013.9 hPa 0 mm - 0 W/m² -
1788657495 25° C 90% 1013.8 hPa 0 mm - 0 W/m² -
1788657189 25° C 92% 1013.7 hPa 0 mm - 0 W/m² -
1788656886 24.44° C 92% 1013.6 hPa 0 mm - 0 W/m² -
1788656581 24.44° C 93% 1013.3 hPa 0 mm - 0 W/m² -
1788656276 24.44° C 93% 1013.3 hPa 0 mm - 0 W/m² -
1788655975 24.44° C 93% 1012.9 hPa 0 mm - 0 W/m² -
1788655674 24.44° C 93% 1012.7 hPa 0 mm - 0 W/m² -
1788655370 25° C 92% 1012.7 hPa 0 mm - 0 W/m² -
1788655070 25° C 91% 1012.6 hPa 0 mm - 0 W/m² -
1788654765 25.56° C 88% 1012.6 hPa 0 mm - 0 W/m² -
1788654460 25.56° C 88% 1012.5 hPa 0 mm - 0 W/m² -
1788654160 25.56° C 87% 1012.6 hPa 0 mm - 0 W/m² -
1788653856 25.56° C 87% 1012.5 hPa 0 mm - 0 W/m² -
1788653551 25.56° C 88% 1012.5 hPa 0 mm - 0 W/m² -
1788653246 25.56° C 87% 1012.8 hPa 0 mm - 1 W/m² -
1788652946 25.56° C 88% 1012.8 hPa 0 mm - 2 W/m² -
1788652641 25.56° C 89% 1012.9 hPa 0 mm - 4 W/m² -
1788652335 25.56° C 89% 1013 hPa 0 mm - 6 W/m² -
1788652031 26.11° C 88% 1013 hPa 0 mm - 9 W/m² -
1788651726 26.11° C 88% 1013.2 hPa 0 mm - 13 W/m² -
1788651421 26.11° C 88% 1013 hPa 0 mm - 16 W/m² -
1788651121 26.11° C 86% 1013.1 hPa 0 mm - 20 W/m² -
1788650816 26.11° C 87% 1012.8 hPa 0 mm - 25 W/m² -
1788650512 25.56° C 88% 1012.8 hPa 0 mm - 27 W/m² -

* Rain latest hour (hover to see other rain measurements)
** Current wind speed in m/s (hover to see current wind gust speed)